Terminal Aerodrome Forecast
Issued by NWS

Home | Current Version | Previous Version | Text Only | Print | Product List | Glossary On
Versions: 1 2 3 4 5 6 7 8 9 10 11 12 13 14 15 16 17
000
FTUS46 KOTX 242336
TAFCOE
TAF
KCOE 242336Z 2500/2524 05003KT P6SM SCT035 OVC120
     FM250100 05005KT P6SM SCT030 BKN040 OVC100
     FM250300 06007KT P6SM -RA SCT025 OVC040
     FM250800 04010KT P6SM SCT060 OVC120
     FM251200 03015KT P6SM SCT060 BKN140
     FM252000 07009KT P6SM VCSH SCT040 BKN080 OVC120
      AMD LTD TO CLD AND VIS=

USA.gov is the U.S. government's official web portal to all federal, state and local government web resources and services.